レモン彗星

C/2019 U6 ( Lemmon )

English version
Home page
Updated on September 9, 2020

---------------------------------------------------------------------

・ プロフィール

発見日 2019年10月31日
発見光度 20.5等
発見者 R. A. Kowalski (Mt. Lemmon Survey)

・ 写真集

・ 軌道要素

Epoch 2020 May 31.0 TT = JDT 2459000.5
T 2020 June 18.82216 TT                                 Rudenko
q   0.9142575            (2000.0)            P               Q
z  +0.0022979      Peri.  329.65987     -0.68858782     +0.06104317
 +/-0.0000008      Node   235.70560     -0.35183729     -0.89942899
e   0.9978992      Incl.   61.00130     -0.63407991     +0.43278310
From 536 observations 2018 Nov. 6-2020 Aug. 2, mean residual 0".7.

・ 星図

・ 光度変化

        H = 14.0  G = 0.15                       [    ,-231]  (              〜2019年10月31日)
        m1 = 7.0 + 5 logΔ + 20.0 log r(t + 10)  [-231,    ]  (2019年10月31日〜              )

---------------------------------------------------------------------

軌道要素はM.P.E.C. 2020-P19に掲載されたものです。
星図はステラナビゲータ Ver.10 (アストロアーツ) で作成したものです。
光度グラフはComet for Windowsで作成したものです。

---------------------------------------------------------------------

Copyright(C) Seiichi Yoshida (comet@aerith.net). All rights reserved.